Regional Weather Roundup
Issued by NWS

Home | Current Version | Previous Version | Text Only | Print | Product List | Glossary Off
Versions: 1 2 3 4 5 6 7 8 9 10 11 12 13 14 15 16 17 18 19 20 21 22 23 24 25 26 27 28 29 30 31 32 33 34 35 36 37 38 39 40 41 42 43 44 45 46 47 48 49 50

000
ASUS45 KTFX 182319
RWRMT
MONTANA HOURLY WEATHER ROUNDUP
NATIONAL WEATHER SERVICE GREAT FALLS MT
519 PM MDT THU SEP 18 2014

NOTE: "FAIR" INDICATES FEW OR NO CLOUDS BELOW 12000 FEET WITH NO
SIGNIFICANT WEATHER AND/OR OBSTRUCTIONS TO VISIBILITY.

* THESE STATIONS ARE NOT UNDER NWS QUALITY CONTROL. THEY DO NOT
   REPORT WEATHER SUCH AS PRECIPITATION OR FOG.

MTZ001>007-043-190000-
WEST OF THE DIVIDE
CITY           SKY/WX    TMP DP  RH WIND       PRES   REMARKS
KALISPELL      SMOKE     77  39  26 SW14G22   29.70F
MISSOULA       HAZE      81  45  28 NW12      29.74F
BUTTE          PTCLDY    72  41  33 SW8       29.87F
MULLAN PASS    CLOUDY    61  39  44 NW3       29.92R
* ESSEX        N/A       65  53  65 SW1G8      N/A
* LINCOLN      N/A       76  43  31 SW7        N/A
* LOOKOUT PASS N/A       67  43  42 VRB4G11    N/A
* POLSON       N/A       74  39  28 W3G8       N/A
* RONAN APT    MOCLDY    75  52  45 N/A        N/A
* SEELEY LAKE  N/A       74  45  36 SW6G11     N/A
* THOMP F APT  CLOUDY    81  43  26 W13G26     N/A
$$

MTZ008-052>055-190000-
SOUTHWEST MONTANA
CITY           SKY/WX    TMP DP  RH WIND       PRES   REMARKS
BOZEMAN        LGT RAIN  64  57  78 S9        29.86R
DILLON         MOCLDY    72  46  40 S12       29.86F
W YELLOWSTONE  CLOUDY    66  50  56 CALM      29.97S
* THREE FORKS  CLOUDY    70  39  32 SE5        N/A
* BOULDER HILL N/A       69  45  42 SW12G20    N/A
* MONIDA PASS  N/A       58  54  87 N4         N/A
* RAYNOLDS PAS N/A       59  59 100 N17G22     N/A
* WHITEHALL    N/A       70  53  55 SE4G11     N/A
* WISE RIVER   N/A       72  40  31 W13G21     N/A
$$

MTZ009>010-012-014-046-048-049-054-190000-
EAST SLOPES AND CENTRAL MONTANA
CITY           SKY/WX    TMP DP  RH WIND       PRES   REMARKS
CUT BANK       MOCLDY    75  43  32 W29G36    29.68S
GREAT FALLS    PTCLDY    79  45  30 SW20G29   29.68F
HELENA         CLEAR     75  54  48 E15       29.75S
* CONRAD       CLEAR     79  46  31 S14        N/A
* EAST GLACIER N/A       68  44  42 W15G20     N/A
* MONARCH      N/A       69  44  41 SW14G21    N/A
* PENDROY      N/A       76  48  37 NW8        N/A
* ROGERS PASS  N/A       70  40  34 SE12G20    N/A
* SAINT MARY   N/A       72  41  33 SW7G21     N/A
* SWEET GRASS  N/A       77  41  28 W14G19     N/A
* WHITE SULPH  N/A       67  53  61 S8G15      N/A
$$

MTZ011-013-016-021-035-040-045-047-050-051-190000-
NORTH CENTRAL MONTANA
CITY           SKY/WX    TMP DP  RH WIND       PRES   REMARKS
HAVRE          MOCLDY    79  48  34 SW17      29.60F
LEWISTOWN      CLOUDY    73  52  48 W12       29.75F
* CHINOOK      MOCLDY    79  48  34 SW12G17   29.59S
* CHESTER      N/A       81  42  25 SW13G24    N/A
* DENTON       N/A       77  50  39 SW4        N/A
* GEYSER       N/A       75  50  42 SW6        N/A
* JUDITH GAP   N/A       69  55  61 SW9G15     N/A
* LOMA         N/A       76  50  40 SE5        N/A
$$

MTZ017>020-022>027-061-062-190000-
NORTHEAST MONTANA
CITY           SKY/WX    TMP DP  RH WIND       PRES   REMARKS
GLASGOW        PTCLDY    81  52  37 W10       29.60S
GLENDIVE       CLOUDY    73  55  53 SE5       29.66F
JORDAN         PTCLDY    81  54  39 W9        29.64S
SIDNEY         CLOUDY   N/A N/A N/A S6        29.62F
WOLF POINT     MOCLDY    77  55  47 SW10      29.60S
* BEAVER HILL  N/A       71  55  57 SE8        N/A
* CIRCLE       N/A       80  55  42 W6         N/A   HI  80
* LINDSAY DVD  N/A       80  51  36 S14        N/A
* NAVAJO       N/A       75  52  45 W12G17     N/A
* SACO         N/A       78  55  45 SW9        N/A
$$

MTZ028>042-056>058-190000-
SOUTHCENTRAL AND SOUTHEAST MONTANA
CITY           SKY/WX    TMP DP  RH WIND       PRES   REMARKS
BAKER          CLOUDY    73  55  53 VRB5      29.73F
BILLINGS       TSTM      70  57  64 SW8       29.77S
LIVINGSTON     CLOUDY    64  55  73 SW8       29.85S
MILES CITY     CLOUDY    79  54  42 W13       29.67F
* LAUREL APT   CLOUDY    72  52  49 N/A        N/A
* ROUNDUP APT  CLOUDY    73  55  53 N/A        N/A
* ALZADA       N/A       83  52  34 NW9        N/A
* HYSHAM       N/A       74  52  46 W11G16     N/A
* LAME DEER    N/A       71  52  51 S8         N/A
* REED POINT   N/A       67  57  70 S4G11      N/A
* ROSCOE HILL  N/A       64  50  61 NW8        N/A
$$

REGIONAL REPORTS...DAKOTAS
CITY           SKY/WX    TMP DP  RH WIND       PRES   REMARKS
WILLISTON      CLOUDY    79  54  42 SW10      29.59F
DICKINSON      CLOUDY    75  61  62 SW9       29.70S
BEACH          N/A       70  55  59 S7        29.70F
CROSBY         CLEAR     77  55  47 SW12      29.56F
TIOGA          CLEAR     77  57  50 S8G16     29.63F
WATFORD CITY   CLEAR     79  50  36 SW16G24   29.61F
BISMARCK       CLOUDY    79  63  58 S13       29.70F
GRAND FORKS    MOCLDY    73  57  57 S15G25    29.75F
FARGO          PTCLDY    75  61  62 S16G24    29.80F
BUFFALO SD     CLOUDY    81  59  47 CALM      29.70S HI  81
RAPID CITY     PTCLDY    90  50  25 SE10      29.73F
$$

REGIONAL REPORTS...WYOMING/IDAHO/WASHINGTON
CITY           SKY/WX    TMP DP  RH WIND       PRES   REMARKS
GILLETTE       CLOUDY    81  48  32 N14       29.82R
SHERIDAN       MOCLDY    77  54  45 S7        29.79F
CODY           CLOUDY   N/A N/A N/A N/A        N/A
YELLOWSTONE LA CLOUDY    57  52  83 CALM      30.08S
SALMON         PTCLDY    73  52  48 NW5       29.78F
MULLAN PASS    CLOUDY    61  39  44 NW3       29.92S
SAND POINT     LGT RAIN  68  52  57 CALM      29.72F
SPOKANE        DRIZZLE   79  45  30 SW25G32   29.74R
$$

REGIONAL REPORTS...ALBERTA
CITY           SKY/WX    TMP DP  RH WIND       PRES   REMARKS
CALGARY        CLOUDY    63  50  63 N14       29.61R
LETHBRIDGE     MOCLDY    75  39  27 W22G41    29.60R
MEDICINE HAT   SMOKE     79  54  42 S7        29.52F VSB 2 1/2
EDMONTON       CLOUDY    64  50  61 NW3       29.58S
WATERTON GATE  N/A       68  37  32 W12G18     N/A
CARDSTON       N/A       72  39  30 W14G23     N/A
MILK RIVER     N/A       75  43  32 W16        N/A
$$

REGIONAL REPORTS...SASKATCHEWAN
CITY           SKY/WX    TMP DP  RH WIND       PRES   REMARKS
SWIFT CURRENT  HAZE      72  50  46 W8        29.54F VSB 3
MOOSE JAW      CLOUDY    77  61  58 SW6       29.51S
REGINA         MOCLDY    77  59  54 SW10      29.50F
VAL MARIE      N/A       73  52  48 W6         N/A
ASSINIBOIA     N/A       77  50  39 W13        N/A
CORONACH       N/A       75  48  39 SW9        N/A

$$




USA.gov is the U.S. government's official web portal to all federal, state and local government web resources and services.